This is the latest recevied weather packets stored in our database for station/object GW1544. If no packets are shown the sender has not sent any weather packets the latest 10 day(s).
| Time | Temp. | Humidity | Pressure | Rain* | Wind** | Luminosity | Snow |
|---|---|---|---|---|---|---|---|
| 1778105023 | 16.11° C | 81% | 1019.3 hPa | 6.86 mm | - | - | - |
| 1778104659 | 16.67° C | 79% | 1018.9 hPa | 6.86 mm | - | - | - |
| 1778102833 | 16.67° C | 74% | 1018.6 hPa | 6.86 mm | - | - | - |
| 1778100331 | 16.11° C | 78% | 1018.6 hPa | 6.86 mm | - | - | - |
| 1778099591 | 16.11° C | 75% | 1019.3 hPa | 6.86 mm | - | - | - |
| 1778096394 | 15.56° C | 80% | 1018.9 hPa | 6.86 mm | - | - | - |
| 1778094943 | 15.56° C | 80% | 1018.6 hPa | 6.86 mm | - | - | - |
| 1778094221 | 15.56° C | 78% | 1018.9 hPa | 6.86 mm | - | - | - |
| 1778092760 | 16.11° C | 78% | 1018.6 hPa | 6.86 mm | - | - | - |
| 1778089887 | 15° C | 84% | 1018.6 hPa | 6.86 mm | - | - | - |
| 1778085586 | 13.89° C | 90% | 1018.9 hPa | 6.86 mm | - | - | - |
| 1778084869 | 13.89° C | 89% | 1018.9 hPa | 6.86 mm | - | - | - |
| 1778084146 | 13.33° C | 92% | 1018.6 hPa | 6.86 mm | - | - | - |
| 1778080174 | 12.22° C | 96% | 1018.2 hPa | 6.86 mm | - | - | - |
| 1778079791 | 12.22° C | 96% | 1018.2 hPa | 6.86 mm | - | - | - |
| 1778077277 | 11.67° C | 97% | 1017.6 hPa | 6.86 mm | - | - | - |
| 1778076575 | 11.67° C | 98% | 1017.2 hPa | 6.86 mm | - | - | - |
| 1778074430 | 12.22° C | 97% | 1017.2 hPa | 6.6 mm | - | - | - |
| 1778071906 | 14.44° C | 98% | 1015.5 hPa | 6.6 mm | - | - | - |
| 1778070800 | 15.56° C | 99% | 1014.9 hPa | 6.35 mm | - | - | - |
| 1778070435 | 15.56° C | 99% | 1014.9 hPa | 6.35 mm | - | - | - |
| 1778067588 | 15° C | 99% | 1014.2 hPa | 6.35 mm | - | - | - |
| 1778065754 | 14.44° C | 99% | 1013.5 hPa | 6.35 mm | - | - | - |
| 1778063631 | 14.44° C | 98% | 1013.2 hPa | 6.1 mm | - | - | - |
| 1778059273 | 14.44° C | 98% | 1013.2 hPa | 5.33 mm | - | - | - |
* Rain since midnight (hover to see other rain measurements)
** Current wind speed in m/s (hover to see current wind gust speed)